GOES 16

Last updated on Tue Oct 14 2025 00:02:22 GMT+0000 (Coordinated Universal Time)

1 41866U 16071A 25286.53807832 -.00000104 00000+0 00000+0 0 9993 2 41866 0.0750 68.1811 0002816 162.7919 240.3984 1.00271562 32634
UTC large
Height (km)
Speed (km/s)
/
Latitude / Longitude
Inclination (degrees)
Orbital Period (minutes)
Azimuth
Elevation
Range (km)
Doppler Factor

Next 0 passes for location: London (51.5072 / 0.1276)

Sorry there are no passes over London.